Location: Binningen
(47.7924°N, 8.7261°E)
Time: 23:10:47
(UTC+00:00)

Cosmos 1975 - Pass Details

Date: 17 May 2021
Orbit: 541 x 560 km, 82.5° (Epoch: 24 June)

Event Time Altitude Azimuth Distance (km) Brightness Sun altitude
Rises 20:54:20 0° 0° (N) 2,715 7.3 -15.0°
Reaches altitude 10° 20:56:46 10° 13° (NNE) 1,817 6.0 -15.3°
Maximum altitude 21:00:11 27° 72° (ENE) 1,079 4.1 -15.6°
Enters shadow 21:01:30 22° 104° (ESE) 1,219 4.2 -15.7°
